Tracking 19795 objects as of 19-Jul-2019
HD Live streaming from Space Station
objects crossing your sky now

THORAD DELTA 1 DEB

Track THORAD DELTA 1 DEB now!
10-day predictions


NORAD ID: 8395
Int'l Code: 1974-089BX
Perigee: 1,356.4 km
Apogee: 1,454.4 km
Inclination: 100.6 °
Period: 113.7 minutes
Semi major axis: 7776 km
RCS: 0.0263 m2 (small)
Launch date: November 15, 1974
Source: United States (US)
Launch site: AIR FORCE WESTERN TEST RANGE (AFWTR)

Note: This is SATELLITE DEBRIS
aabbcc
Your satellite tracking list
Your tracking list is empty




NASA's NSSDC Master Catalog

Two Line Element Set (TLE):
1  8395U 74089BX  19198.22216378  .00000235  00000-0  14477-2 0  9997
2  8395 100.5999 291.0783 0063029 335.7715  52.0585 12.66000225 39596
Source of the keplerian elements: AFSPC